DECAYED

BREEZE-M DEB, 38960 (Decayed)

Orbit data source: Space-Track

BREEZE-M DEB, 38960 was space debris in LEO originally from a launch on Mon, 06 Aug 2012 UTC launched from the Tyuratam Missile And Space Complex (TTMTR). Debris objects in space refer to the collection of defunct objects orbiting the Earth. Examples of debris include non-operational satellites, rocket bodies, and fragments generated from explosions, collisions, or faulty payload assembly.

Not visible in the next 10 days
Identifier
38960, 2012-044CT
Orbit
Decayed
Country
Flag of CISCIS
Related business
Manufacturer
Khrunichev
Mission
Decayed spacecraft
Bus & Motor
BRIZ, Unknown motor
Mass
Unknown
Launch date (UTC)
2012-08-06 (14 years ago)
Launch vehicle
Unknown
Launch site
Tyuratam Missile And Space Complex (TTMTR)
Object type
Payload
Rocket body
Debris
Shape & HBR
Unknown shape, 0.1 m
Radar Cross Section
Medium (>0.1 m² and <1 m²)

Expand to show TLE details & history
Last TLE update: 9 months ago

TLE from 9 months ago
0 BREEZE-M DEB
1 38960U 12044CT  25250.91128396  .06095475  11669-4  94205-3 0  9996
2 38960  49.9901  50.8138 0051197 213.4474 146.3288 16.28879601508376
Epoch: 2025-09-07T21:52Z
TLE epoch observation values (Epoch: 2025-09-07T21:52:14.934Z)
Latitude
0.00002°
Longitude
95.52762°
Altitude
224.19 km
Speed
7.757 km/s
True Right ascension
03h 23m 15s
True Declination
0° 00' 00"
Sunlit
Object was in full shadow at epoch
Visualization orbit readout
Latitude
Unknown
Longitude
Unknown
Altitude
Unknown
Speed
Unknown
Apparent Right ascension
Unknown
Apparent Declination
Unknown
Sunlit
N/A
Visualization observer readout
Local Sidereal Time
00:39:28
Azimuth
Unknown
Elevation
Unknown
Doppler factor
Unknown
Orbital elements
Apogee altitude
230.02 km
Perigee altitude
162.701 km
Semi-major axis
6,574.498 km
Eccentricity
0.00512
Inclination
49.9901°
RAAN
50.8138°
Arg. of periapsis
213.4474°
True anomaly
146.65234°
Mean anomaly
146.3288°
Eccentric anomaly
146.49074°
Mean motion
4.07145 °/min
Orbital period
88.42 mins
BSTAR
0.00094205
Loading maneuver chart data...
Computing Atmospheric mass density...

Documentation

Showing up to 5 results
|